Regional Weather Roundup
Issued by NWS

Home | Current Version | Previous Version | Text Only | Print | Product List | Glossary On
Versions: 1 2 3 4 5 6 7 8 9 10 11 12 13 14 15 16 17 18 19 20 21 22 23 24 25 26 27 28 29 30 31 32 33 34 35 36 37 38 39 40 41 42 43 44 45 46 47 48 49 50
000
ASUS43 KOAX 241902
RWRNE

WEATHER ROUNDUP FOR NEBRASKA
NATIONAL WEATHER SERVICE OMAHA NE
200 PM CDT SAT SEP 24 2016

NOTES: SATELLITE DATA IS BEING USED TO AUGMENT CLOUD COVER ABOVE
       12000 FEET.
       "FAIR" INDICATES FEW OR NO CLOUDS BELOW 12,000 FEET WITH NO
       SIGNIFICANT WEATHER AND/OR OBSTRUCTIONS TO VISIBILITY.

  * THESE STATIONS DO NOT REPORT WEATHER SUCH AS RAIN...SNOW OR FOG.

NEZ001>004-019>022-054>056-242000-
NEBRASKA PANHANDLE

CITY           SKY/WX    TMP DP  RH WIND       PRES   REMARKS
SCOTTSBLUFF    SUNNY     68  40  35 W9G23     29.98S
ALLIANCE       SUNNY     66  38  35 W21G29    29.97S
CHADRON        MOSUNNY   66  40  38 W22       29.93R
KIMBALL        SUNNY     65  36  34 SW15      30.03S
SIDNEY         SUNNY     68  35  29 SW10      30.01F
$$

NEZ057>060-069>072-079>082-242000-
SOUTHWEST NEBRASKA

CITY           SKY/WX    TMP DP  RH WIND       PRES   REMARKS
NORTH PLATTE   SUNNY     79  41  25 W7        29.96F
IMPERIAL       SUNNY     71  38  29 W6        29.99F
LEXINGTON      SUNNY     74  50  42 NW14      29.94F
MCCOOK         SUNNY     76  42  29 N6        29.95F HAZE
OGALLALA       SUNNY     73  38  29 W8        29.98F
$$

NEZ005>010-023>029-035>040-094-242000-
NORTH CENTRAL NEBRASKA

CITY           SKY/WX    TMP DP  RH WIND       PRES   REMARKS
VALENTINE      SUNNY     73  39  29 W18G24    29.91F
AINSWORTH      SUNNY     72  44  35 SW14      29.91F
BROKEN BOW     SUNNY     72  50  45 CALM      29.94F
O`NEILL        PTSUNNY   73  57  58 SW9       29.90F
ORD            CLOUDY    74  55  51 SW9       29.90F
THEDFORD       SUNNY     74  39  27 W13G23    29.95F
$$

NEZ041-046>049-061>064-073>077-083>087-242000-
SOUTH CENTRAL NEBRASKA

CITY           SKY/WX    TMP DP  RH WIND       PRES   REMARKS
GRAND ISLAND   CLOUDY    68  61  78 W8        29.91S
AURORA         CLOUDY    70  68  96 S6        29.91S
HASTINGS       CLOUDY    68  63  84 SW5       29.94S
HEBRON         TSTM      68  65  90 S6        29.93F
HOLDREGE       CLOUDY    72  48  41 W8        29.94S
KEARNEY *      CLOUDY    72  52  49 W8        29.92F
YORK           CLOUDY    72  70  94 SE7       29.92F
$$

NEZ011>018-030>034-042>045-242000-
NORTHEAST NEBRASKA

CITY           SKY/WX    TMP DP  RH WIND       PRES   REMARKS
NORFOLK        CLOUDY    73  69  87 S6        29.89F
ALBION         CLOUDY    71  67  89 SW7       29.87F
BLAIR          PTSUNNY   73  70  89 SE9       29.92F
FREMONT        CLOUDY    75  69  82 S17G23    29.93S
TEKAMAH        CLOUDY    78  70  76 S20G26    29.90F
WAYNE          CLOUDY    75  72  88 S9        29.92R
$$

NEZ050>053-065>068-078-088>093-242000-
SOUTHEAST NEBRASKA

CITY           SKY/WX    TMP DP  RH WIND       PRES   REMARKS
LINCOLN        TSTM      75  72  90 S10       29.92F
OMAHA EPPLEY   TSTM      73  69  87 SE9       29.93F FOG
BEATRICE       TSTM      72  71  96 SW6       29.94F
FALLS CITY     SUNNY     86  71  60 S18       29.92F HX  91
NEBRASKA CITY  CLOUDY    77  65  65 W16G23    29.94S
PLATTSMOUTH    CLOUDY    76  70  81 S6        29.93F
$$

NEZ044-045-051>053-067-242000-
OMAHA AREA

CITY           SKY/WX    TMP DP  RH WIND       PRES   REMARKS
OMAHA EPPLEY   TSTM      73  69  87 SE9       29.93F FOG
BLAIR          PTSUNNY   73  70  89 SE9       29.92F
FREMONT        CLOUDY    75  69  82 S17G23    29.93S
MILLARD        CLOUDY    76  73  91 SE5       29.93F
OFFUTT AFB     TSTM      72  72 100 S9        29.92F
PLATTSMOUTH    CLOUDY    76  70  81 S6        29.93F
WAHOO          LGT RAIN  73  71  91 S8        29.92F
$$



USA.gov is the U.S. government's official web portal to all federal, state and local government web resources and services.